Regional Weather Roundup
Issued by NWS

Home | Current Version | Previous Version | Text Only | Print | Product List | Glossary Off
Versions: 1 2 3 4 5 6 7 8 9 10 11 12 13 14 15 16 17 18 19 20 21 22 23 24 25 26 27 28 29 30 31 32 33 34 35 36 37 38 39 40 41 42 43 44 45 46 47 48 49 50

088
ASUS45 KBOI 170710
RWRID

IDAHO REGIONAL WEATHER ROUNDUP
NATIONAL WEATHER SERVICE BOISE ID
100 AM MDT THU AUG 17 2017

NOTE: "FAIR" INDICATES FEW OR NO CLOUDS BELOW 12000 FEET
WITH NO SIGNIFICANT WEATHER AND/OR OBSTRUCTIONS TO VISIBILITY

IDZ012-014-170800-
SOUTHWEST IDAHO


CITY           SKY/WX    TMP DP  RH WIND       PRES   REMARKS
BOISE          CLEAR     67  37  33 CALM      29.99R
CALDWELL       CLEAR     66  47  50 W6        29.98R
MOUNTAIN HOME  CLEAR     68  38  32 N7        29.99R
$$

IDZ016-017-170800-
SOUTHCENTRAL IDAHO


CITY           SKY/WX    TMP DP  RH WIND       PRES   REMARKS
BURLEY         CLEAR     60  44  55 S9        30.05S
JEROME         CLEAR     64  41  42 S7        30.05S
TWIN FALLS     CLEAR     65  37  35 S12       30.07R
$$

IDZ019>023-170800-
SOUTHEAST IDAHO


CITY           SKY/WX    TMP DP  RH WIND       PRES   REMARKS
IDAHO FALLS    CLOUDY    64  41  42 S12       30.06S
POCATELLO      CLEAR     68  37  32 S8        30.07R
REXBURG        CLEAR     66  37  34 S13       30.05S
$$

IDZ006-010-011-018-031-032-170800-
CENTRAL IDAHO MOUNTAINS


CITY           SKY/WX    TMP DP  RH WIND       PRES   REMARKS
MCCALL         CLEAR     54  38  54 CALM      30.11R
HAILEY         CLEAR     59  41  51 NW7       30.12S
STANLEY          N/A     45  32  60 SE3       30.21R
SALMON         CLEAR     62  38  40 VRB3      30.05R
CHALLIS        CLEAR     60  40  47 CALM      30.08R
$$

IDZ002-004-006-007-026-170800-
NORTHERN IDAHO


CITY           SKY/WX    TMP DP  RH WIND       PRES   REMARKS
LEWISTON       CLEAR     72  41  32 CALM      29.94R
LOWELL           N/A     61  48  62 CALM      30.01R
COEUR D`ALENE  CLEAR     65  43  44 CALM      29.97R
MULLAN PASS    CLEAR     56  33  42 W5        30.14S
$$




USA.gov is the U.S. government's official web portal to all federal, state and local government web resources and services.